Location: Bletchingley
(51.2333°N, 0.1000°W)
Time: 22:52:36
(UTC+00:00)

Cosmos 2082 Rocket - Pass Details

Date: 18 September 2020
Orbit: 834 x 852 km, 71.0° (Epoch: 21 October)

Event Time Altitude Azimuth Distance (km) Brightness Sun altitude
Rises 18:53:05 0° 326° (NNW) 3,394 6.1 -8.0°
Reaches altitude 10° 18:57:03 10° 354° (N) 2,457 4.9 -8.6°
Maximum altitude 18:59:38 13° 21° (NNE) 2,238 4.3 -9.0°
Drops below altitude 10° 19:02:13 10° 49° (NE) 2,455 4.3 -9.4°
Enters shadow 19:04:23 - 66° (ENE) 2,907 4.5 -9.7°
